International Falls, MN

12:19 PM CDT on August 20, 2017 (GMT -0500)
Falls International

Weather History for KINL - February, 2013

Change the Weather History Date:

Sunday, February 3, 2013

  Actual Average Record
Temperature  
Mean Temperature -8 °F 6 °F  
Max Temperature 10 °F 18 °F 53 °F (1991)
Min Temperature -27 °F -5 °F -40 °F (1982)
Degree Days  
Heating Degree Days 73 59  
Month to date heating degree days 238 177  
Since 1 July heating degree days 6200 6230  
Cooling Degree Days 0 0  
Month to date cooling degree days 0 0  
Year to date cooling degree days 0 0  
Moisture  
Dew Point -14 °F    
Average Humidity 66    
Maximum Humidity 82    
Minimum Humidity 49    
Precipitation  
Precipitation T in 0.02 in 0.40 in (1943)
Month to date precipitation T 0.05  
Year to date precipitation 2.15 0.67  
Snow  
Snow 0.10 in 0.30 in 1.60 in (1984)
Month to date snowfall 0.2 1.1  
Since 1 July snowfall 49.7 47.1  
Snow Depth 20.00 in    
Sea Level Pressure  
Sea Level Pressure 30.06 in    
Wind  
Wind Speed 7 mph (WNW)    
Max Wind Speed 16 mph    
Max Gust Speed 22 mph    
Visibility 10 miles    
Events      
T = Trace of Precipitation, MM = Missing Value Source: NWS Daily Summary

Daily Weather History Graph

Daily Weather History Graph

Search for Another Location

Airport or City:

Trip Planner

Search our weather history database for the weather conditions in past years. The results will help you decide how hot, cold, wet, or windy it might be!

Date:

Astronomy

Feb. 03, 2013 Rise Set
Actual Time 7:39 AM CST 5:15 PM CST
Civil Twilight 7:06 AM CST 5:49 PM CST
Nautical Twilight 6:28 AM CST 6:26 PM CST
Astronomical Twilight 5:52 AM CST 7:03 PM CST
Moon 1:09 AM CST (2/3) 10:50 AM CST (2/3)
Length of Visible Light 10h 43m
Length of Day
9h 36m
Waning Gibbous, 48% of the Moon is Illuminated
Feb 3
Waning Gibbous
Feb 10
New
Feb 17
First Quarter
Feb 25
Full
Mar 4
Last Quarter

Hourly Weather History & Observations

Time (CST) Temp. Windchill Dew Point Humidity Pressure Visibility Wind Dir Wind Speed Gust Speed Precip Events Conditions
12:55 AM 1.0 °F -17.3 °F -4.0 °F 79% 29.99 in 9.0 mi WNW 13.8 mph - 0.00 in   Overcast
1:55 AM 1.0 °F -15.8 °F -6.0 °F 72% 30.01 in 7.0 mi WNW 11.5 mph - N/A   Overcast
2:55 AM -0.0 °F -17.1 °F -7.1 °F 72% 30.01 in 10.0 mi WNW 11.5 mph - N/A   Overcast
3:55 AM -2.9 °F -18.8 °F -9.0 °F 75% 30.03 in 10.0 mi WNW 9.2 mph - N/A   Partly Cloudy
4:55 AM -5.1 °F -20.4 °F -9.0 °F 83% 30.04 in 10.0 mi West 8.1 mph - N/A   Clear
5:55 AM -6.0 °F -21.5 °F -9.9 °F 83% 30.06 in 10.0 mi West 8.1 mph - N/A   Clear
6:55 AM -7.1 °F -18.1 °F -13.0 °F 75% 30.06 in 10.0 mi WNW 4.6 mph - N/A   Clear
7:55 AM -9.9 °F -24.9 °F -14.1 °F 82% 30.09 in 10.0 mi WNW 6.9 mph - N/A   Clear
8:55 AM -5.1 °F -19.1 °F -13.0 °F 69% 30.09 in 10.0 mi WNW 6.9 mph - N/A   Partly Cloudy
9:55 AM -2.0 °F -19.6 °F -11.0 °F 66% 30.10 in 10.0 mi WNW 11.5 mph - N/A   Clear
10:55 AM -0.0 °F -18.7 °F -11.0 °F 60% 30.09 in 10.0 mi WNW 13.8 mph - N/A   Partly Cloudy
11:30 AM 1.4 °F -15.3 °F -11.2 °F 56% 29.98 in 10.0 mi NW 11.5 mph - N/A   Mostly Cloudy
11:55 AM 3.9 °F -11.3 °F -9.9 °F 53% 30.07 in 10.0 mi WNW 10.4 mph 16.1 mph N/A   Mostly Cloudy
12:27 PM 5.0 °F -9.1 °F -9.4 °F 52% 29.96 in 10.0 mi West 9.2 mph - N/A   Scattered Clouds
12:55 PM 3.9 °F -11.3 °F -9.9 °F 53% 30.06 in 10.0 mi WNW 10.4 mph - N/A   Clear
1:55 PM 6.1 °F -8.7 °F -9.0 °F 50% 30.05 in 10.0 mi NW 10.4 mph - N/A   Clear
2:55 PM 7.0 °F -4.5 °F -9.0 °F 48% 30.05 in 10.0 mi West 6.9 mph - N/A   Clear
3:55 PM 5.0 °F -8.1 °F -9.9 °F 50% 30.06 in 10.0 mi WNW 8.1 mph - N/A   Clear
4:55 PM 1.9 °F -13.8 °F -11.9 °F 52% 30.06 in 10.0 mi WNW 10.4 mph - N/A   Clear
5:55 PM -2.0 °F -13.9 °F -13.0 °F 60% 30.07 in 10.0 mi WNW 5.8 mph - N/A   Clear
6:55 PM -7.1 °F -15.9 °F -14.1 °F 72% 30.08 in 10.0 mi WNW 3.5 mph - N/A   Clear
7:55 PM -13.0 °F - -20.0 °F 71% 30.09 in 10.0 mi Calm Calm - N/A   Clear
8:55 PM -20.0 °F - -27.0 °F 70% 30.09 in 10.0 mi Calm Calm - N/A   Clear
9:55 PM -22.0 °F - -29.9 °F 67% 30.10 in 10.0 mi Calm Calm - N/A   Clear
10:55 PM -24.0 °F - -32.1 °F 66% 30.11 in 10.0 mi Calm Calm - N/A   Clear
11:55 PM -27.0 °F -38.7 °F -35.0 °F 66% 30.12 in 10.0 mi West 3.5 mph - N/A   Clear